{"data":{"norad_id":47367,"intl_designator":"2021-005U","name":"STARLINK-2082","alt_names":[],"object_type":"PAYLOAD","status":"ACTIVE","operator":null,"country":"US","launch_date":"2021-01-20","launch_site_code":"AFETR","launch_vehicle":null,"mission":null,"orbit_class":"UNKNOWN","rcs_meters":null,"size_class":null,"mass_kg":null,"dimensions":null,"purposes":["comms"],"wikipedia_slug":null,"has_3d_model":false,"image_url":null,"decayed_at":null,"tle_current":{"epoch":"2026-05-25T04:02:19.893984Z","epoch_age_seconds":67259,"freshness":"FRESH","line1":"1 47367U 21005U   26145.16828581  .00003323  00000+0  11877-3 0  9999","line2":"2 47367  53.1608  66.9632 0001791  86.1995 273.9211 15.31714926294740","mean_motion":15.31714926,"eccentricity":0.0001791,"inclination_deg":53.1608,"raan_deg":66.9632,"arg_perigee_deg":86.1995,"mean_anomaly_deg":273.9211,"bstar":0.00011877,"rev_number":29474,"period_min":94.012271837064,"perigee_km":469.46887605655,"apogee_km":471.92212785875,"semimajor_km":6848.8325019576,"source":"CELESTRAK","updated_at":"2026-05-25T13:38:16.526179Z"}}}